QPF
0.06 0.05 0.05 0.03 0.03 0.02 0.03 0.03 0.04 0.04 0.02 0.01 0.01 0.01 0.01 0.02 0.03 0.04 0.04 0.04 0.04 0.04 0.03 0.03 0.03 0.03 0.02 0.02 0.01 0.01 0.01 0.02 0.03 0.03 0.02 0.01 0.01 0.01
0.05 0.05 0.05 0.04 0.04 0.03 0.04 0.04 0.05 0.05 0.04 0.02 0.01 0.01 0.01 0.01 0.02 0.03 0.03 0.04 0.04 0.04 0.03 0.03 0.04 0.04 0.04 0.03 0.02 0.02 0.01 0.01 0.02 0.03 0.03 0.03 0.02 0.01
0.07 0.06 0.05 0.05 0.05 0.04 0.05 0.05 0.05 0.05 0.05 0.02 0.02 0.01 0.02 0.02 0.02 0.03 0.03 0.03 0.03 0.04 0.04 0.04 0.04 0.04 0.04 0.04 0.04 0.02 0.02 0.02 0.02 0.03 0.03 0.03 0.03 0.02
0.07 0.07 0.07 0.06 0.06 0.05 0.05 0.04 0.04 0.04 0.04 0.03 0.02 0.02 0.03 0.03 0.03 0.04 0.04 0.04 0.04 0.05 0.05 0.05 0.06 0.06 0.04 0.04 0.04 0.03 0.02 0.02 0.02 0.02 0.03 0.03 0.03 0.03
0.07 0.08 0.08 0.08 0.08 0.06 0.05 0.05 0.05 0.05 0.05 0.05 0.05 0.04 0.04 0.04 0.05 0.06 0.05 0.05 0.05 0.06 0.07 0.07 0.08 0.08 0.06 0.04 0.04 0.04 0.03 0.02 0.02 0.01 0.02 0.03 0.04 0.03
0.10 0.10 0.10 0.11 0.10 0.09 0.08 0.07 0.07 0.07 0.07 0.08 0.08 0.08 0.07 0.07 0.08 0.08 0.08 0.07 0.07 0.07 0.08 0.09 0.09 0.09 0.07 0.06 0.04 0.04 0.04 0.03 0.02 0.02 0.02 0.02 0.03 0.03
0.12 0.12 0.11 0.11 0.11 0.11 0.11 0.10 0.10 0.11 0.11 0.11 0.11 0.10 0.09 0.08 0.08 0.07 0.08 0.09 0.09 0.10 0.11 0.11 0.10 0.08 0.07 0.07 0.06 0.05 0.04 0.04 0.03 0.02 0.02 0.02 0.02 0.03
0.13 0.13 0.13 0.13 0.12 0.12 0.12 0.12 0.12 0.12 0.13 0.13 0.12 0.10 0.08 0.08 0.08 0.09 0.10 0.12 0.11 0.09 0.10 0.12 0.10 0.09 0.07 0.05 0.06 0.06 0.05 0.04 0.03 0.02 0.02 0.02 0.02 0.03
0.10 0.11 0.11 0.11 0.13 0.13 0.14 0.16 0.15 0.15 0.13 0.13 0.13 0.11 0.09 0.09 0.10 0.12 0.12 0.11 0.09 0.08 0.10 0.12 0.12 0.10 0.08 0.06 0.06 0.06 0.07 0.05 0.03 0.02 0.02 0.02 0.02 0.03
0.07 0.08 0.08 0.08 0.09 0.09 0.10 0.11 0.12 0.13 0.14 0.14 0.14 0.12 0.11 0.11 0.12 0.14 0.15 0.15 0.13 0.11 0.11 0.12 0.11 0.11 0.09 0.08 0.07 0.06 0.06 0.05 0.03 0.02 0.01 0.01 0.01 0.01
0.04 0.04 0.05 0.05 0.07 0.08 0.07 0.08 0.09 0.09 0.11 0.13 0.16 0.17 0.16 0.15 0.15 0.16 0.17 0.17 0.15 0.12 0.10 0.10 0.10 0.10 0.09 0.08 0.08 0.07 0.06 0.05 0.04 0.02 0.01 0.01 0.01 0.01
0.03 0.04 0.05 0.05 0.06 0.07 0.07 0.07 0.09 0.09 0.10 0.11 0.11 0.12 0.13 0.13 0.14 0.13 0.13 0.13 0.12 0.11 0.10 0.09 0.09 0.09 0.09 0.08 0.06 0.06 0.05 0.04 0.03 0.02 0.01 0.01 0.01 0.01
0.03 0.03 0.04 0.05 0.05 0.06 0.06 0.06 0.08 0.10 0.10 0.10 0.11 0.12 0.12 0.12 0.12 0.12 0.13 0.14 0.13 0.11 0.09 0.09 0.08 0.07 0.06 0.06 0.05 0.04 0.03 0.03 0.02 0.02 0.01 0.01 0.01 0.01
0.04 0.03 0.03 0.04 0.04 0.05 0.05 0.06 0.08 0.08 0.07 0.09 0.10 0.11 0.11 0.12 0.12 0.13 0.15 0.16 0.16 0.14 0.11 0.09 0.08 0.07 0.05 0.05 0.04 0.03 0.03 0.02 0.02 0.01 0.01 0.01 0.01 0.01
0.06 0.05 0.04 0.04 0.03 0.04 0.05 0.05 0.06 0.06 0.07 0.08 0.08 0.08 0.08 0.09 0.11 0.12 0.13 0.13 0.14 0.14 0.12 0.10 0.08 0.07 0.06 0.04 0.03 0.02 0.02 0.02 0.01 0.01 0.01 0.01 0.01 0.01
0.05 0.06 0.05 0.05 0.04 0.04 0.04 0.05 0.04 0.05 0.06 0.07 0.07 0.07 0.08 0.09 0.09 0.10 0.11 0.12 0.13 0.12 0.11 0.09 0.08 0.07 0.06 0.05 0.04 0.03 0.02 0.02 0.01 0.01 0.01 0.00 0.01 0.01
0.04 0.03 0.03 0.04 0.05 0.04 0.04 0.05 0.05 0.05 0.05 0.06 0.07 0.08 0.09 0.09 0.09 0.09 0.09 0.10 0.11 0.10 0.10 0.08 0.07 0.07 0.06 0.05 0.05 0.03 0.02 0.02 0.01 0.01 0.01 0.00 0.00 0.01
0.03 0.03 0.03 0.03 0.04 0.04 0.04 0.04 0.04 0.05 0.05 0.06 0.07 0.07 0.08 0.09 0.09 0.10 0.09 0.09 0.08 0.07 0.07 0.08 0.07 0.07 0.07 0.06 0.04 0.03 0.03 0.02 0.01 0.01 0.01 0.00 0.00 0.00
0.02 0.02 0.02 0.03 0.03 0.03 0.04 0.04 0.05 0.05 0.05 0.06 0.07 0.08 0.08 0.08 0.09 0.09 0.09 0.09 0.08 0.07 0.07 0.07 0.06 0.06 0.06 0.05 0.04 0.03 0.02 0.02 0.01 0.01 0.01 0.00 0.00 0.00
0.01 0.02 0.02 0.03 0.03 0.04 0.04 0.04 0.05 0.05 0.05 0.06 0.07 0.07 0.07 0.08 0.08 0.08 0.08 0.08 0.08 0.08 0.07 0.06 0.06 0.05 0.05 0.04 0.04 0.03 0.02 0.02 0.01 0.01 0.01 0.01 0.00 0.00
0.01 0.01 0.02 0.03 0.03 0.03 0.04 0.04 0.05 0.05 0.06 0.06 0.06 0.07 0.07 0.08 0.08 0.08 0.08 0.08 0.08 0.08 0.07 0.06 0.05 0.05 0.05 0.05 0.04 0.03 0.02 0.02 0.01 0.01 0.01 0.01 0.01 0.01
0.01 0.01 0.02 0.02 0.03 0.03 0.04 0.04 0.05 0.05 0.06 0.06 0.06 0.06 0.07 0.07 0.08 0.07 0.07 0.07 0.07 0.07 0.07 0.07 0.07 0.07 0.06 0.04 0.03 0.03 0.02 0.02 0.02 0.01 0.01 0.01 0.01 0.01
0.02 0.02 0.02 0.02 0.03 0.03 0.03 0.03 0.04 0.04 0.05 0.06 0.06 0.06 0.06 0.06 0.07 0.07 0.07 0.07 0.07 0.07 0.06 0.07 0.07 0.06 0.05 0.04 0.04 0.03 0.03 0.03 0.02 0.02 0.02 0.01 0.01 0.00
MSLP
1015.21 1015.49 1015.76 1015.98 1016.12 1016.15 1016.06 1015.84 1015.52 1015.12 1014.70 1014.28 1013.93 1013.67 1013.51 1013.46 1013.48 1013.55 1013.65 1013.74 1013.80 1013.83 1013.82 1013.81 1013.81 1013.85 1013.94 1014.09 1014.31 1014.56 1014.83 1015.08 1015.28 1015.41 1015.43 1015.35 1015.18 1014.91
1015.13 1015.37 1015.60 1015.79 1015.91 1015.92 1015.81 1015.59 1015.26 1014.86 1014.42 1013.98 1013.60 1013.30 1013.10 1012.99 1012.96 1013.00 1013.06 1013.13 1013.18 1013.22 1013.25 1013.28 1013.33 1013.42 1013.57 1013.77 1014.01 1014.28 1014.55 1014.79 1014.97 1015.07 1015.07 1014.98 1014.79 1014.52
1015.23 1015.43 1015.61 1015.76 1015.84 1015.83 1015.71 1015.48 1015.15 1014.74 1014.29 1013.83 1013.42 1013.07 1012.80 1012.62 1012.51 1012.47 1012.47 1012.48 1012.51 1012.53 1012.57 1012.63 1012.72 1012.87 1013.06 1013.31 1013.59 1013.89 1014.17 1014.41 1014.59 1014.67 1014.67 1014.57 1014.38 1014.12
1015.51 1015.66 1015.79 1015.90 1015.94 1015.90 1015.76 1015.52 1015.18 1014.76 1014.30 1013.82 1013.36 1012.95 1012.61 1012.34 1012.13 1011.99 1011.89 1011.83 1011.79 1011.78 1011.80 1011.87 1011.99 1012.17 1012.41 1012.70 1013.03 1013.36 1013.67 1013.93 1014.11 1014.21 1014.22 1014.13 1013.97 1013.74
1015.93 1016.03 1016.11 1016.17 1016.17 1016.09 1015.92 1015.66 1015.31 1014.88 1014.40 1013.89 1013.39 1012.91 1012.49 1012.12 1011.81 1011.55 1011.34 1011.18 1011.06 1010.99 1010.98 1011.03 1011.15 1011.36 1011.63 1011.96 1012.33 1012.70 1013.04 1013.33 1013.55 1013.69 1013.73 1013.69 1013.57 1013.39
1016.43 1016.48 1016.51 1016.50 1016.45 1016.33 1016.13 1015.84 1015.47 1015.02 1014.51 1013.98 1013.43 1012.89 1012.39 1011.92 1011.51 1011.14 1010.82 1010.55 1010.35 1010.20 1010.14 1010.16 1010.27 1010.48 1010.77 1011.13 1011.53 1011.94 1012.33 1012.67 1012.94 1013.12 1013.23 1013.25 1013.20 1013.09
1016.92 1016.91 1016.88 1016.82 1016.71 1016.54 1016.30 1015.98 1015.57 1015.10 1014.56 1013.99 1013.40 1012.81 1012.23 1011.69 1011.18 1010.72 1010.31 1009.95 1009.66 1009.45 1009.33 1009.32 1009.41 1009.61 1009.91 1010.28 1010.71 1011.15 1011.58 1011.97 1012.30 1012.55 1012.73 1012.83 1012.85 1012.82
1017.32 1017.26 1017.17 1017.05 1016.88 1016.66 1016.37 1016.00 1015.56 1015.05 1014.48 1013.87 1013.24 1012.60 1011.97 1011.37 1010.79 1010.26 1009.78 1009.36 1009.02 1008.75 1008.59 1008.55 1008.62 1008.80 1009.09 1009.47 1009.91 1010.38 1010.85 1011.28 1011.67 1012.00 1012.25 1012.43 1012.54 1012.57
1017.57 1017.45 1017.30 1017.13 1016.91 1016.63 1016.29 1015.88 1015.39 1014.84 1014.23 1013.58 1012.91 1012.23 1011.56 1010.92 1010.31 1009.74 1009.22 1008.78 1008.40 1008.12 1007.94 1007.87 1007.93 1008.10 1008.38 1008.76 1009.20 1009.69 1010.18 1010.66 1011.10 1011.49 1011.81 1012.06 1012.24 1012.33
1017.64 1017.47 1017.27 1017.05 1016.78 1016.46 1016.07 1015.61 1015.08 1014.48 1013.82 1013.13 1012.41 1011.70 1011.00 1010.33 1009.71 1009.14 1008.63 1008.18 1007.82 1007.55 1007.38 1007.32 1007.37 1007.54 1007.82 1008.18 1008.62 1009.11 1009.62 1010.13 1010.61 1011.04 1011.42 1011.72 1011.95 1012.08
1017.54 1017.32 1017.09 1016.83 1016.53 1016.17 1015.74 1015.23 1014.65 1014.00 1013.29 1012.54 1011.79 1011.04 1010.32 1009.64 1009.03 1008.48 1008.00 1007.59 1007.28 1007.05 1006.92 1006.89 1006.96 1007.13 1007.41 1007.77 1008.20 1008.68 1009.19 1009.70 1010.20 1010.66 1011.07 1011.41 1011.67 1011.83
1017.31 1017.07 1016.82 1016.53 1016.21 1015.82 1015.36 1014.81 1014.18 1013.47 1012.71 1011.91 1011.10 1010.32 1009.58 1008.90 1008.30 1007.79 1007.36 1007.03 1006.78 1006.62 1006.55 1006.57 1006.67 1006.87 1007.15 1007.51 1007.92 1008.39 1008.88 1009.39 1009.89 1010.36 1010.78 1011.14 1011.41 1011.58
1017.03 1016.77 1016.51 1016.22 1015.88 1015.48 1014.99 1014.41 1013.73 1012.97 1012.15 1011.29 1010.44 1009.62 1008.86 1008.18 1007.60 1007.13 1006.77 1006.51 1006.34 1006.27 1006.27 1006.36 1006.52 1006.74 1007.03 1007.39 1007.79 1008.23 1008.71 1009.19 1009.67 1010.14 1010.55 1010.91 1011.19 1011.36
1016.74 1016.48 1016.22 1015.94 1015.60 1015.19 1014.69 1014.08 1013.36 1012.55 1011.68 1010.77 1009.86 1009.00 1008.22 1007.55 1006.99 1006.57 1006.26 1006.08 1006.00 1006.02 1006.10 1006.26 1006.47 1006.73 1007.04 1007.39 1007.78 1008.20 1008.64 1009.10 1009.55 1009.99 1010.40 1010.74 1011.01 1011.18
1016.49 1016.24 1015.99 1015.73 1015.40 1015.00 1014.49 1013.86 1013.11 1012.26 1011.34 1010.38 1009.44 1008.54 1007.74 1007.07 1006.53 1006.14 1005.89 1005.78 1005.78 1005.88 1006.05 1006.27 1006.53 1006.83 1007.15 1007.50 1007.87 1008.27 1008.68 1009.10 1009.52 1009.93 1010.31 1010.65 1010.91 1011.08
1016.31 1016.08 1015.85 1015.60 1015.29 1014.90 1014.39 1013.74 1012.98 1012.10 1011.15 1010.16 1009.18 1008.27 1007.45 1006.77 1006.25 1005.89 1005.69 1005.63 1005.70 1005.86 1006.09 1006.37 1006.68 1007.00 1007.34 1007.69 1008.04 1008.41 1008.78 1009.17 1009.56 1009.94 1010.30 1010.61 1010.87 1011.04
1016.19 1015.98 1015.78 1015.55 1015.26 1014.88 1014.38 1013.74 1012.97 1012.08 1011.11 1010.11 1009.11 1008.18 1007.35 1006.67 1006.16 1005.82 1005.65 1005.63 1005.74 1005.95 1006.23 1006.55 1006.89 1007.24 1007.58 1007.93 1008.26 1008.60 1008.95 1009.30 1009.65 1010.00 1010.34 1010.64 1010.89 1011.08
1016.12 1015.94 1015.77 1015.56 1015.30 1014.93 1014.44 1013.81 1013.05 1012.17 1011.20 1010.19 1009.19 1008.25 1007.43 1006.75 1006.24 1005.91 1005.76 1005.76 1005.90 1006.14 1006.44 1006.79 1007.14 1007.50 1007.85 1008.18 1008.50 1008.82 1009.14 1009.46 1009.78 1010.10 1010.41 1010.70 1010.95 1011.15
1016.08 1015.93 1015.78 1015.60 1015.36 1015.01 1014.54 1013.93 1013.19 1012.32 1011.37 1010.37 1009.38 1008.45 1007.63 1006.95 1006.44 1006.11 1005.96 1005.97 1006.12 1006.37 1006.68 1007.03 1007.40 1007.76 1008.10 1008.43 1008.74 1009.04 1009.33 1009.63 1009.93 1010.22 1010.51 1010.79 1011.04 1011.25
1016.04 1015.92 1015.80 1015.65 1015.43 1015.10 1014.65 1014.07 1013.34 1012.50 1011.57 1010.59 1009.62 1008.70 1007.88 1007.21 1006.70 1006.37 1006.22 1006.22 1006.36 1006.60 1006.91 1007.27 1007.63 1007.99 1008.33 1008.65 1008.95 1009.24 1009.52 1009.80 1010.07 1010.35 1010.63 1010.89 1011.13 1011.35
1015.98 1015.90 1015.81 1015.67 1015.47 1015.17 1014.74 1014.17 1013.47 1012.65 1011.75 1010.79 1009.84 1008.94 1008.14 1007.47 1006.95 1006.62 1006.45 1006.44 1006.57 1006.81 1007.11 1007.46 1007.82 1008.18 1008.52 1008.84 1009.14 1009.42 1009.69 1009.96 1010.22 1010.48 1010.74 1011.00 1011.23 1011.45
1015.88 1015.84 1015.77 1015.66 1015.47 1015.18 1014.76 1014.21 1013.53 1012.73 1011.85 1010.93 1009.99 1009.11 1008.32 1007.66 1007.15 1006.80 1006.63 1006.61 1006.73 1006.95 1007.25 1007.60 1007.96 1008.32 1008.67 1008.99 1009.30 1009.58 1009.85 1010.11 1010.37 1010.62 1010.87 1011.11 1011.34 1011.56
1015.75 1015.73 1015.68 1015.58 1015.40 1015.11 1014.70 1014.15 1013.48 1012.71 1011.85 1010.94 1010.03 1009.17 1008.40 1007.74 1007.24 1006.90 1006.73 1006.71 1006.82 1007.04 1007.34 1007.69 1008.06 1008.43 1008.79 1009.12 1009.43 1009.73 1010.00 1010.26 1010.52 1010.76 1011.01 1011.24 1011.47 1011.68
Thickness
5596 5595 5594 5593 5591 5590 5588 5587 5585 5588 5594 5594 5589 5586 5581 5576 5573 5569 5567 5565 5563 5561 5560 5559 5557 5555 5553 5552 5551 5550 5550 5550 5550 5551 5552 5552 5553 5554
5587 5586 5585 5583 5581 5579 5578 5577 5576 5575 5579 5584 5578 5574 5569 5564 5561 5558 5556 5554 5551 5549 5548 5546 5545 5543 5542 5541 5541 5540 5540 5541 5542 5542 5543 5544 5545 5546
5577 5577 5576 5574 5572 5570 5568 5567 5565 5562 5563 5568 5563 5560 5555 5551 5547 5545 5543 5540 5538 5537 5535 5534 5533 5532 5531 5531 5531 5531 5531 5531 5532 5533 5534 5535 5536 5538
5567 5567 5566 5565 5562 5559 5557 5556 5554 5550 5548 5550 5548 5544 5541 5538 5534 5531 5529 5527 5525 5525 5524 5523 5522 5522 5522 5521 5521 5521 5521 5522 5523 5524 5524 5525 5527 5529
5557 5556 5556 5554 5552 5548 5545 5543 5541 5537 5535 5533 5533 5529 5525 5522 5519 5517 5515 5513 5512 5512 5511 5511 5512 5512 5512 5512 5511 5512 5512 5513 5514 5514 5514 5515 5517 5519
5546 5545 5544 5542 5540 5536 5534 5531 5527 5523 5521 5518 5516 5513 5510 5507 5503 5502 5501 5501 5500 5499 5499 5501 5502 5502 5502 5502 5502 5502 5502 5503 5504 5504 5505 5506 5507 5510
5536 5534 5532 5529 5526 5523 5521 5518 5514 5510 5508 5505 5503 5499 5497 5494 5493 5491 5490 5488 5487 5487 5487 5489 5490 5491 5492 5492 5491 5491 5492 5493 5494 5495 5495 5496 5498 5500
5525 5523 5521 5518 5514 5511 5508 5504 5501 5498 5496 5492 5491 5490 5489 5486 5484 5480 5477 5474 5475 5476 5475 5477 5478 5479 5482 5482 5482 5482 5482 5483 5484 5485 5485 5486 5488 5490
5513 5511 5509 5505 5501 5499 5496 5492 5489 5486 5483 5481 5480 5480 5479 5477 5473 5469 5467 5465 5466 5466 5463 5465 5465 5467 5470 5471 5471 5471 5472 5474 5474 5475 5475 5476 5478 5480
5500 5497 5494 5492 5488 5485 5482 5480 5478 5475 5472 5470 5468 5468 5466 5464 5462 5461 5459 5455 5451 5451 5451 5453 5455 5456 5458 5460 5461 5461 5462 5463 5464 5464 5465 5466 5468 5470
5485 5482 5480 5478 5475 5471 5468 5466 5465 5463 5459 5456 5455 5454 5452 5452 5450 5447 5445 5443 5442 5441 5440 5442 5444 5444 5445 5447 5449 5450 5451 5451 5452 5454 5455 5455 5457 5459
5473 5470 5466 5463 5460 5456 5453 5452 5450 5449 5445 5444 5443 5441 5439 5439 5438 5437 5436 5434 5433 5432 5432 5431 5433 5432 5432 5434 5436 5438 5439 5440 5441 5442 5444 5445 5447 5449
5458 5456 5453 5448 5445 5442 5440 5438 5436 5433 5432 5430 5429 5427 5425 5425 5424 5424 5424 5425 5425 5425 5425 5423 5423 5423 5424 5423 5424 5426 5428 5429 5430 5431 5433 5435 5437 5439
5443 5441 5438 5435 5432 5429 5427 5425 5422 5420 5418 5417 5415 5413 5412 5411 5410 5409 5410 5411 5413 5415 5415 5414 5414 5415 5414 5414 5414 5414 5415 5418 5420 5422 5424 5425 5427 5429
5428 5425 5423 5421 5419 5417 5415 5412 5409 5406 5404 5403 5402 5400 5398 5397 5395 5395 5395 5396 5397 5399 5400 5403 5405 5404 5405 5407 5407 5406 5406 5407 5409 5411 5414 5416 5419 5421
5415 5413 5411 5409 5406 5404 5402 5399 5396 5393 5390 5389 5388 5386 5385 5384 5383 5384 5384 5385 5384 5384 5385 5388 5391 5393 5395 5396 5397 5398 5399 5399 5400 5401 5404 5406 5409 5412
5402 5401 5399 5396 5394 5391 5388 5385 5382 5379 5377 5375 5374 5373 5373 5372 5372 5372 5373 5374 5374 5375 5374 5374 5376 5378 5381 5384 5386 5389 5390 5390 5391 5392 5394 5397 5400 5403
5390 5388 5385 5381 5379 5377 5375 5373 5370 5367 5364 5362 5361 5361 5361 5361 5361 5361 5361 5363 5365 5366 5366 5366 5366 5367 5368 5369 5375 5379 5380 5381 5382 5383 5386 5390 5392 5395
5377 5373 5370 5367 5365 5363 5361 5359 5357 5354 5352 5351 5350 5350 5349 5350 5350 5351 5352 5354 5355 5356 5356 5357 5359 5363 5367 5369 5366 5368 5373 5374 5374 5376 5379 5382 5385 5387
5363 5359 5357 5354 5352 5350 5348 5346 5344 5342 5341 5341 5340 5339 5339 5340 5341 5342 5344 5345 5346 5346 5347 5349 5352 5355 5361 5363 5361 5360 5362 5365 5368 5370 5371 5372 5374 5376
5350 5347 5344 5342 5340 5338 5336 5334 5332 5331 5330 5330 5330 5330 5330 5330 5332 5333 5335 5335 5337 5339 5341 5342 5344 5345 5347 5349 5351 5351 5352 5354 5359 5362 5364 5365 5366 5369
5338 5336 5334 5332 5329 5327 5325 5323 5321 5321 5320 5320 5321 5321 5322 5322 5323 5324 5326 5328 5329 5331 5333 5333 5334 5336 5339 5343 5345 5345 5345 5345 5348 5351 5354 5358 5362 5364
5327 5325 5323 5321 5319 5316 5314 5313 5311 5311 5311 5311 5312 5313 5314 5315 5316 5317 5319 5320 5322 5323 5325 5325 5326 5329 5332 5334 5336 5337 5337 5338 5340 5342 5344 5347 5351 5354